CW2285 Weather Reports


Display with metric or nautical units.
time (UTC)temp
F
wind
direction
speed
MPH
gust
MPH
rain 1hr
in
rain 24hr
in
rain mn
in
humidity
%
barometer
mb
20260506005503 74 295 13.0 25.0 0.00 0.00 0.00 33 1007.8
20260506005003 74 303 15.0 25.0 0.00 0.00 0.00 32 1007.8
20260506004504 74 278 17.0 24.0 0.00 0.00 0.00 32 1007.7
20260506004004 75 287 17.0 28.0 0.00 0.00 0.00 32 1007.7
20260506003003 75 280 12.0 22.0 0.00 0.00 0.00 31 1007.7
20260506002503 75 289 16.0 25.0 0.00 0.00 0.00 31 1007.7
20260506002003 76 281 16.0 25.0 0.00 0.00 0.00 30 1007.7
20260506001504 76 289 11.0 22.0 0.00 0.00 0.00 30 1007.7
20260506001003 76 286 16.0 26.0 0.00 0.00 0.00 30 1007.7
20260506000004 77 285 14.0 25.0 0.00 0.00 0.00 28 1007.7
20260505235504 77 295 13.0 22.0 0.00 0.00 0.00 27 1007.7
20260505235004 77 291 9.0 22.0 0.00 0.00 0.00 27 1007.7
20260505234503 78 284 10.0 17.0 0.00 0.00 0.00 24 1007.7
20260505234004 77 282 12.0 20.0 0.00 0.00 0.00 26 1007.7
20260505233503 78 284 12.0 20.0 0.00 0.00 0.00 25 1007.7
20260505233004 77 284 14.0 23.0 0.00 0.00 0.00 25 1007.7
20260505232503 78 277 12.0 22.0 0.00 0.00 0.00 26 1007.7
20260505232004 78 286 10.0 21.0 0.00 0.00 0.00 25 1007.7
20260505231003 78 285 12.0 21.0 0.00 0.00 0.00 26 1007.8
20260505230504 78 283 12.0 20.0 0.00 0.00 0.00 25 1007.8
20260505225503 78 280 12.0 20.0 0.00 0.00 0.00 26 1007.8
20260505224503 78 287 12.0 21.0 0.00 0.00 0.00 25 1008.0
20260505224003 78 320 9.0 18.0 0.00 0.00 0.00 26 1008.1
20260505223504 78 282 8.0 14.0 0.00 0.00 0.00 25 1008.1
20260505223003 78 282 9.0 20.0 0.00 0.00 0.00 26 1008.2
20260505222504 78 295 10.0 22.0 0.00 0.00 0.00 26 1008.3
20260505222003 78 298 5.0 17.0 0.00 0.00 0.00 26 1008.3
20260505221503 79 293 6.0 17.0 0.00 0.00 0.00 26 1008.3
20260505221003 79 290 9.0 20.0 0.00 0.00 0.00 26 1008.3
20260505220504 79 290 10.0 16.0 0.00 0.00 0.00 25 1008.6
20260505215004 79 311 8.0 17.0 0.00 0.00 0.00 26 1008.7
20260505214503 79 294 10.0 21.0 0.00 0.00 0.00 25 1008.7
20260505214004 78 299 10.0 22.0 0.00 0.00 0.00 26 1008.8
20260505212503 78 318 7.0 15.0 0.00 0.00 0.00 26 1008.9
20260505212003 78 273 7.0 20.0 0.00 0.00 0.00 26 1008.9
20260505211503 79 313 6.0 12.0 0.00 0.00 0.00 26 1009.1
20260505211004 79 322 9.0 18.0 0.00 0.00 0.00 26 1009.1
20260505210504 79 310 9.0 15.0 0.00 0.00 0.00 27 1009.3
20260505210004 77 324 3.0 12.0 0.00 0.00 0.00 30 1009.3
20260505205003 77 303 7.0 20.0 0.00 0.00 0.00 29 1009.3
20260505204504 77 285 5.0 16.0 0.00 0.00 0.00 31 1009.3
20260505204004 77 256 6.0 13.0 0.00 0.00 0.00 30 1009.4
20260505203503 77 286 7.0 15.0 0.00 0.00 0.00 29 1009.4
20260505202503 77 294 9.0 16.0 0.00 0.00 0.00 29 1009.4
20260505202003 77 308 6.0 15.0 0.00 0.00 0.00 31 1009.4
20260505201504 77 303 8.0 17.0 0.00 0.00 0.00 30 1009.4
20260505200503 78 281 7.0 16.0 0.00 0.00 0.00 31 1009.5
20260505200004 77 343 3.0 14.0 0.00 0.00 0.00 31 1009.6
20260505195503 78 298 6.0 18.0 0.00 0.00 0.00 31 1009.6
20260505194503 76 286 8.0 15.0 0.00 0.00 0.00 33 1009.9
20260505194003 75 34 2.0 7.0 0.00 0.00 0.00 33 1009.9
20260505193503 74 327 2.0 7.0 0.00 0.00 0.00 36 1010.0
20260505193003 75 231 4.0 12.0 0.00 0.00 0.00 32 1010.0
20260505192504 76 271 5.0 10.0 0.00 0.00 0.00 35 1009.9
20260505192004 75 300 2.0 6.0 0.00 0.00 0.00 34 1010.1
20260505191503 76 320 5.0 12.0 0.00 0.00 0.00 35 1010.2
20260505190504 75 313 3.0 6.0 0.00 0.00 0.00 36 1010.2
20260505190004 74 283 5.0 9.0 0.00 0.00 0.00 35 1010.3
20260505185504 75 263 5.0 12.0 0.00 0.00 0.00 35 1010.3
20260505185004 75 284 6.0 13.0 0.00 0.00 0.00 35 1010.2
20260505184504 74 335 2.0 8.0 0.00 0.00 0.00 37 1010.3
20260505184004 74 292 3.0 10.0 0.00 0.00 0.00 36 1010.3
20260505183503 75 286 5.0 13.0 0.00 0.00 0.00 36 1010.2
20260505183004 74 309 4.0 8.0 0.00 0.00 0.00 37 1010.3
20260505182504 73 295 7.0 12.0 0.00 0.00 0.00 37 1010.3
20260505182003 73 287 4.0 9.0 0.00 0.00 0.00 37 1010.4
20260505181504 73 261 5.0 9.0 0.00 0.00 0.00 38 1010.3
20260505181003 72 272 3.0 3.0 0.00 0.00 0.00 39 1010.3
20260505180503 73 313 5.0 9.0 0.00 0.00 0.00 38 1010.4
20260505180003 73 299 2.0 7.0 0.00 0.00 0.00 37 1010.4
20260505175503 73 28 2.0 6.0 0.00 0.00 0.00 39 1010.4
20260505175003 73 277 3.0 6.0 0.00 0.00 0.00 39 1010.3
20260505174003 72 275 5.0 8.0 0.00 0.00 0.00 38 1010.2
20260505173503 72 298 3.0 6.0 0.00 0.00 0.00 40 1010.1
20260505173003 73 327 3.0 8.0 0.00 0.00 0.00 40 1010.1
20260505172503 73 301 6.0 12.0 0.00 0.00 0.00 40 1010.0
20260505172003 72 290 5.0 13.0 0.00 0.00 0.00 40 1010.0
20260505171503 72 252 6.0 15.0 0.00 0.00 0.00 40 1010.0
20260505171003 72 297 6.0 12.0 0.00 0.00 0.00 40 1010.1
20260505170503 72 312 3.0 10.0 0.00 0.00 0.00 41 1010.0
20260505170004 71 282 6.0 13.0 0.00 0.00 0.00 41 1010.0
20260505165503 71 332 3.0 7.0 0.00 0.00 0.00 42 1010.0
20260505165004 70 273 5.0 9.0 0.00 0.00 0.00 42 1010.1
20260505164503 70 284 5.0 12.0 0.00 0.00 0.00 43 1010.0
20260505164003 70 294 6.0 12.0 0.00 0.00 0.00 43 1009.9
20260505163503 69 313 3.0 10.0 0.00 0.00 0.00 44 1009.9
20260505162503 69 298 4.0 10.0 0.00 0.00 0.00 45 1009.9
20260505162004 68 307 4.0 10.0 0.00 0.00 0.00 46 1009.9
20260505161503 67 274 7.0 13.0 0.00 0.00 0.00 47 1009.9
20260505161004 67 298 6.0 12.0 0.00 0.00 0.00 48 1009.8
20260505160504 68 292 6.0 12.0 0.00 0.00 0.00 47 1009.8
20260505153003 66 293 6.0 13.0 0.00 0.00 0.00 49 1009.4
20260505152504 66 283 6.0 13.0 0.00 0.00 0.00 50 1009.4
20260505152004 65 302 3.0 7.0 0.00 0.00 0.00 51 1009.5
20260505151504 66 274 5.0 12.0 0.00 0.00 0.00 51 1009.5
20260505151004 66 270 6.0 10.0 0.00 0.00 0.00 52 1009.5
20260505150503 65 280 5.0 14.0 0.00 0.00 0.00 53 1009.4
20260505125004 60 307 6.0 14.0 0.00 0.00 0.00 59 1008.6
20260505124503 60 301 7.0 14.0 0.00 0.00 0.00 59 1008.6
20260505124003 60 302 7.0 13.0 0.00 0.00 0.00 59 1008.5
20260505123504 60 313 6.0 13.0 0.00 0.00 0.00 59 1008.5
20260505123003 60 300 9.0 17.0 0.00 0.00 0.00 59 1008.6
20260505122503 60 311 9.0 17.0 0.00 0.00 0.00 59 1008.6
20260505122003 60 298 7.0 15.0 0.00 0.00 0.00 59 1008.5
20260505121504 60 297 7.0 14.0 0.00 0.00 0.00 59 1008.5
20260505121004 60 297 9.0 16.0 0.00 0.00 0.00 59 1008.6
20260505120503 60 305 7.0 16.0 0.00 0.00 0.00 58 1008.6
20260505120005 61 301 9.0 14.0 0.00 0.00 0.00 58 1008.7
20260505115004 61 293 7.0 14.0 0.00 0.00 0.00 57 1008.8
20260505114504 61 288 7.0 15.0 0.00 0.00 0.00 57 1008.8
20260505114004 61 288 11.0 17.0 0.00 0.00 0.00 56 1008.8
20260505113503 61 287 8.0 14.0 0.00 0.00 0.00 55 1008.8
20260505113003 61 290 5.0 12.0 0.00 0.00 0.00 55 1008.8
20260505112504 61 301 6.0 10.0 0.00 0.00 0.00 55 1008.7
20260505112003 61 299 6.0 13.0 0.00 0.00 0.00 56 1008.7
20260505111503 61 294 7.0 12.0 0.00 0.00 0.00 56 1008.7
20260505111003 60 329 4.0 9.0 0.00 0.00 0.00 58 1008.7
20260505110504 60 317 3.0 9.0 0.00 0.00 0.00 58 1008.7
20260505101504 61 302 4.0 9.0 0.00 0.00 0.00 55 1008.6
20260505100004 61 308 6.0 12.0 0.00 0.00 0.00 56 1008.7
20260505095503 61 310 6.0 13.0 0.00 0.00 0.00 56 1008.8
20260505095004 61 314 4.0 8.0 0.00 0.00 0.00 56 1008.6
20260505094504 61 320 5.0 10.0 0.00 0.00 0.00 56 1008.5
20260505094004 61 300 3.0 12.0 0.00 0.00 0.00 56 1008.6
20260505093504 61 315 5.0 13.0 0.00 0.00 0.00 57 1008.7
20260505093004 61 303 5.0 9.0 0.00 0.00 0.00 57 1008.8
20260505092504 61 309 5.0 12.0 0.00 0.00 0.00 57 1008.8
20260505092003 61 291 6.0 14.0 0.00 0.00 0.00 56 1008.8
20260505091504 61 307 6.0 12.0 0.00 0.00 0.00 56 1008.8
20260505091004 61 299 6.0 12.0 0.00 0.00 0.00 57 1008.8
20260505090504 62 296 7.0 15.0 0.00 0.00 0.00 56 1008.8
20260505090003 62 301 7.0 14.0 0.00 0.00 0.00 56 1008.8
20260505085504 61 308 6.0 12.0 0.00 0.00 0.00 56 1008.8
20260505085003 61 301 7.0 14.0 0.00 0.00 0.00 57 1008.8
20260505084504 61 294 6.0 13.0 0.00 0.00 0.00 58 1008.8
20260505084003 62 304 7.0 17.0 0.00 0.00 0.00 57 1008.9
20260505083504 62 309 7.0 14.0 0.00 0.00 0.00 56 1008.9
20260505083004 62 293 7.0 13.0 0.00 0.00 0.00 56 1008.8
20260505082504 62 297 6.0 12.0 0.00 0.00 0.00 56 1008.8
20260505082004 62 302 6.0 12.0 0.00 0.00 0.00 56 1008.9
20260505081504 62 325 8.0 17.0 0.00 0.00 0.00 55 1008.9
20260505081003 62 304 7.0 13.0 0.00 0.00 0.00 54 1008.8
20260505080504 62 306 7.0 17.0 0.00 0.00 0.00 54 1008.8
20260505080004 63 301 8.0 12.0 0.00 0.00 0.00 54 1008.9
20260505075504 63 298 5.0 12.0 0.00 0.00 0.00 53 1008.8
20260505075003 63 311 7.0 13.0 0.00 0.00 0.00 53 1008.8
20260505074504 63 300 7.0 17.0 0.00 0.00 0.00 53 1008.8
20260505074004 63 306 9.0 18.0 0.00 0.00 0.00 53 1008.8
20260505073504 63 292 8.0 14.0 0.00 0.00 0.00 52 1008.8
20260505072504 63 306 7.0 16.0 0.00 0.00 0.00 51 1008.8
20260505072004 63 305 7.0 14.0 0.00 0.00 0.00 51 1008.8
20260505071503 63 315 7.0 14.0 0.00 0.00 0.00 52 1008.8
20260505071003 64 310 5.0 15.0 0.00 0.00 0.00 52 1008.8
20260505070504 64 295 7.0 12.0 0.00 0.00 0.00 51 1008.8
20260505070003 64 304 6.0 14.0 0.00 0.00 0.00 50 1008.8
20260505065003 64 314 5.0 10.0 0.00 0.00 0.00 49 1008.8
20260505064003 65 308 5.0 12.0 0.00 0.00 0.00 48 1008.9
20260505063503 65 289 6.0 13.0 0.00 0.00 0.00 47 1008.9
20260505063003 65 280 7.0 13.0 0.00 0.00 0.00 46 1008.9
20260505062504 65 284 7.0 13.0 0.00 0.00 0.00 47 1008.9
20260505062004 65 303 9.0 17.0 0.00 0.00 0.00 46 1008.9
20260505061503 65 289 6.0 13.0 0.00 0.00 0.00 46 1008.9
20260505061004 65 297 6.0 13.0 0.00 0.00 0.00 45 1009.0
20260505060504 66 293 7.0 16.0 0.00 0.00 0.00 44 1009.0
20260505060003 66 282 5.0 13.0 0.00 0.00 0.00 44 1008.9
20260505055503 66 286 6.0 14.0 0.00 0.00 0.00 44 1008.9
20260505054504 66 285 6.0 12.0 0.00 0.00 0.00 44 1009.2
20260505054003 66 295 7.0 13.0 0.00 0.00 0.00 44 1009.1
20260505053003 66 269 6.0 12.0 0.00 0.00 0.00 44 1009.1
20260505052504 66 278 7.0 14.0 0.00 0.00 0.00 46 1009.3
20260505051502 66 286 5.0 12.0 0.00 0.00 0.00 44 1009.2
20260505051002 66 294 7.0 14.0 0.00 0.00 0.00 44 1009.2
20260505041502 67 289 7.0 18.0 0.00 0.00 0.00 45 1008.9
20260505041003 67 292 7.0 15.0 0.00 0.00 0.00 45 1009.0
20260505040503 67 295 9.0 17.0 0.00 0.00 0.00 45 1008.8
20260505040003 67 288 11.0 18.0 0.00 0.00 0.00 45 1008.8
20260505035502 67 275 9.0 21.0 0.00 0.00 0.00 45 1008.8
20260505034502 67 288 12.0 20.0 0.00 0.00 0.00 45 1008.7
20260505034003 67 303 9.0 20.0 0.00 0.00 0.00 45 1008.5
20260505033003 67 285 13.0 22.0 0.00 0.00 0.00 46 1008.4
20260505032002 67 287 10.0 20.0 0.00 0.00 0.00 46 1008.4
20260505031502 67 290 10.0 21.0 0.00 0.00 0.00 45 1008.3
20260505031002 68 285 10.0 23.0 0.00 0.00 0.00 46 1008.3
20260505030502 68 301 10.0 18.0 0.00 0.00 0.00 45 1008.2
20260505030002 68 286 13.0 28.0 0.00 0.00 0.00 43 1008.2
20260505025502 68 288 7.0 18.0 0.00 0.00 0.00 43 1008.2
20260505025002 68 285 13.0 22.0 0.00 0.00 0.00 43 1008.1
20260505024503 69 288 9.0 18.0 0.00 0.00 0.00 42 1008.1
20260505023502 69 299 12.0 21.0 0.00 0.00 0.00 41 1008.2
20260505022502 70 291 10.0 20.0 0.00 0.00 0.00 39 1008.1
20260505022002 71 293 10.0 15.0 0.00 0.00 0.00 38 1008.0
20260505021503 71 286 8.0 15.0 0.00 0.00 0.00 37 1007.9
20260505020502 71 282 9.0 16.0 0.00 0.00 0.00 37 1008.1
20260505020002 72 279 11.0 16.0 0.00 0.00 0.00 35 1008.2
20260505015003 73 297 6.0 14.0 0.00 0.00 0.00 33 1007.7
20260505014502 73 284 11.0 18.0 0.00 0.00 0.00 34 1007.7
20260505014002 73 276 3.0 12.0 0.00 0.00 0.00 32 1007.7
20260505013002 74 290 13.0 24.0 0.00 0.00 0.00 32 1007.8
20260505012502 74 287 7.0 15.0 0.00 0.00 0.00 31 1007.8
20260505012002 74 274 12.0 25.0 0.00 0.00 0.00 31 1007.7
20260505011502 75 296 10.0 20.0 0.00 0.00 0.00 29 1007.8
20260505010502 76 306 8.0 20.0 0.00 0.00 0.00 28 1007.9
20260505010002 76 281 9.0 16.0 0.00 0.00 0.00 28 1007.8